Location: Camp Crooked Creek
(37.9149°N, 85.6607°W)
Time: 13:43:52
(UTC-04:00)

Daily predictions for brighter satellites

Satellite Brightness Start Highest point End
(mag) Time Altitude Azimuth Time Altitude Azimuth Time Altitude Azimuth
CENTAUR R/B 3.7 21:06:24 10° NNW 21:13:57 46° NE 21:21:58 10° ESE
Cosmos 1709 Rocket 4.0 21:12:11 10° N 21:18:28 73° E 21:24:37 10° SSE
Cosmos 773 Rocket 4.0 21:15:29 10° S 21:20:34 65° ESE 21:25:39 10° NNE
YAOGAN 6 4.4 21:19:42 10° ESE 21:21:58 16° ENE 21:24:14 10° NNE
Cosmos 1656 Rocket 4.4 21:18:50 10° N 21:23:54 38° ENE 21:28:59 10° SE
Cosmos 1975 Rocket 4.4 21:23:04 10° SSW 21:27:21 45° W 21:31:39 10° N
NOSS 2-2 (C) 3.4 21:24:12 10° SSW 21:28:08 64° ESE 21:32:29 10° NE
Cosmos 2369 Rocket 3.5 21:25:35 10° NW 21:30:51 41° WSW 21:36:07 10° S
USA 81 4.2 21:26:44 10° SSE 21:31:51 55° E 21:37:00 10° NNE
Spot 1 4.4 21:29:26 10° SSE 21:33:52 53° ENE 21:38:06 10° N
Spot 2 Rocket 4.0 21:31:17 10° S 21:36:15 61° WSW 21:41:15 10° NNW
Cosmos 405 Rocket 3.1 21:35:13 10° SSE 21:38:44 42° E 21:42:21 10° NNE
SL-27 R/B 3.7 21:38:48 10° SSE 21:41:49 25° E 21:44:51 10° NE
Cosmos 1943 Rocket 2.6 21:36:38 10° NNW 21:42:10 64° WSW 21:47:38 10° S
USA 186 2.7 21:40:48 10° S 21:43:56 48° W 21:47:01 10° NNW
Helios 1A 3.0 21:40:16 10° SSE 21:44:29 76° ENE 21:48:42 10° N
Tiangong 2 1.1 21:41:54 10° SW 21:45:01 60° SSE 21:48:10 10° ENE
Cosmos 1680 Rocket 3.7 21:41:10 10° S 21:46:13 51° ESE 21:51:16 10° NNE
Okean 1 4.5 21:45:02 10° SSW 21:48:50 46° W 21:52:40 10° N
Cosmos 1536 Rocket 3.5 21:44:39 10° S 21:48:58 89° W 21:53:19 10° N
Cosmos 1500 3.9 21:45:19 10° NNW 21:49:00 54° W 21:52:40 10° S
Cosmos 1441 Rocket 4.1 21:47:08 11° SSE 21:50:13 29° E 21:53:29 10° NNE
Iridium 4 Rocket 4.4 21:47:58 10° NNW 21:52:53 53° W 21:58:13 10° SSW
ASTEX 1 4.0 21:49:32 12° SE 21:53:46 39° ENE 21:58:19 10° N
Cosmos 1975 3.5 21:51:32 10° NNW 21:55:31 55° W 21:59:31 10° S
Aureole 3 Rocket 3.8 21:49:01 10° S 21:55:52 65° E 22:00:44 10° NNE
ARGOS 4.4 21:54:42 14° ESE 21:58:17 26° ENE 22:02:41 10° NNE
Envisat 3.2 21:53:14 10° S 21:58:18 77° WSW 22:03:25 10° NNW
Cosmos 2074 Rocket 4.1 21:53:02 10° N 21:59:15 65° E 22:05:23 10° SSE
Meteor 1-13 Rocket 4.3 21:53:38 10° S 21:59:34 82° E 22:05:30 10° N
Cosmos 2184 Rocket 4.1 21:53:55 10° N 22:00:14 64° E 22:06:14 11° SSE
Cosmos 1238 Rocket 4.4 21:54:11 10° SSE 22:00:35 50° E 22:06:56 10° NNE
COSMOS 2406 3.2 21:57:59 10° SSW 22:03:44 88° ESE 22:09:29 10° NNE
Cosmos 405 4.2 22:00:52 10° NNE 22:03:58 27° ENE 22:05:24 20° ESE
ISS -3.9 22:01:33 10° SW 22:04:50 67° SE 22:08:06 10° NE
CZ-3A R/B 1.7 22:02:09 10° SSW 22:07:23 32° SE 22:08:36 21° E
Cosmos 1939 Rocket 3.2 22:06:54 10° S 22:10:43 61° W 22:14:33 10° NNW
CZ-4B DEB 3.2 22:08:13 13° S 22:10:45 55° W 22:13:43 10° NNW
OAO 2 Rocket 3.3 22:06:45 10° WSW 22:11:38 61° S 22:15:28 17° E
Cosmos 2082 Rocket 3.9 22:12:52 14° E 22:12:57 14° E 22:15:49 10° ENE
Cosmos 1025 Rocket 3.3 22:11:09 18° SSE 22:13:59 44° E 22:18:03 10° NNE
Cosmos 1743 3.1 22:12:45 10° NNW 22:16:37 65° W 22:20:03 13° S
Helios 1B rocket 3.8 22:13:17 10° N 22:17:11 42° WNW 22:21:05 10° SW
Resurs 01 Rocket 4.2 22:14:20 10° SW 22:17:17 17° W 22:20:15 10° NW
ASTRO E2 3.8 22:17:42 10° WSW 22:21:09 28° S 22:22:08 24° SSE
COSMOS 2455 4.0 22:15:38 10° NW 22:21:09 39° WSW 22:26:38 10° S
MetOp-B 4.4 22:19:00 21° SE 22:22:21 54° ENE 22:27:35 10° N
Cosmos 374 Rocket 4.3 22:21:09 10° NW 22:24:53 74° WSW 22:26:57 27° SSE
Cosmos 1371 Rocket 4.4 22:25:32 10° N 22:30:42 48° ENE 22:33:10 28° SE
Nadezhda 1 Rocket 4.1 22:25:02 10° S 22:31:22 87° W 22:37:49 10° N
Intercosmos 24 3.8 22:29:42 10° N 22:33:31 57° E 22:34:34 39° SE
Cosmos 1437 Rocket 3.0 22:36:51 10° N 22:40:35 48° E 22:41:21 41° ESE
Meteor 2-9 Rocket 4.2 22:37:00 10° NNW 22:42:30 79° W 22:46:13 22° S
H-2A R/B 3.9 22:41:37 17° E 22:42:32 18° ENE 22:45:35 10° NNE
Cosmos 2154 Rocket 4.0 22:37:39 10° N 22:44:02 76° E 22:47:47 26° SSE
Cosmos 1666 3.7 22:40:52 10° NNW 22:44:25 42° W 22:46:39 20° SSW
ERS-1 Rocket 3.2 22:41:29 21° S 22:44:48 65° WSW 22:49:48 10° NNW
SL-08 RB Rocket 3.8 22:46:40 39° SE 22:48:02 56° ENE 22:52:25 10° N
PSLV R/B 3.4 22:45:22 10° WNW 22:48:28 58° NNE 22:48:57 50° NE
USA 267 4.5 22:45:35 10° ENE 22:48:42 20° E 22:48:42 20° E
Meteor 2-4 Rocket 4.4 22:45:10 10° SSW 22:50:38 54° WNW 22:56:18 10° N
Okean 2 3.4 22:51:27 31° SSW 22:53:21 79° W 22:57:27 10° N
Cosmos 1833 Rocket 3.4 22:54:08 31° ESE 22:54:20 31° ESE 22:59:13 10° NE
Meteor 2-19 Rocket 4.4 22:52:42 10° N 22:58:51 74° E 23:01:35 35° SSE
H-2A R/B 2.0 23:02:16 45° SE 23:03:36 62° ENE 23:08:32 10° N
CENTAUR R/B 3.9 22:57:13 10° NW 23:04:46 45° WSW 23:10:10 20° S
Landsat 7 4.2 23:04:53 42° ESE 23:05:45 48° ENE 23:10:20 10° N
Meteor 1-4 Rocket 4.4 23:03:01 10° NNE 23:05:02 19° NE 23:05:02 19° NE
Cosmos 967 Rocket 4.4 23:00:09 10° SSW 23:06:25 87° ESE 23:12:43 10° NNE
SPOT 5 2.9 23:11:37 44° SSW 23:12:45 61° WSW 23:17:03 10° NNW
Cosmos 1515 3.8 23:12:23 61° SW 23:12:52 71° W 23:16:40 10° N
Cosmos 2341 Rocket 4.0 23:07:21 10° N 23:13:44 87° W 23:16:32 37° S
Cosmos 1624 Rocket 4.0 23:09:14 10° NNW 23:14:31 83° WSW 23:16:02 48° S
DMSP B5D2-2 4.0 23:13:58 10° NNE 23:19:14 66° ESE 23:20:16 53° SSE
Cosmos 1892 Rocket 3.8 23:18:38 43° SSW 23:19:56 66° W 23:24:21 10° N
Cosmos 2228 2.9 23:15:42 10° N 23:19:59 66° E 23:20:01 66° E
Terra 2.2 23:20:24 46° E 23:20:48 47° ENE 23:25:23 10° N
Tiangong 2 2.5 23:18:53 10° W 23:21:52 38° N 23:21:52 38° N
Cosmos 921 Rocket 2.9 23:20:18 10° NNW 23:24:48 83° ENE 23:25:01 79° SE
Cosmos 1980 Rocket 3.8 23:21:14 10° N 23:25:33 22° NE 23:27:03 20° ENE
SL-19 R/B 4.2 23:20:49 10° NNE 23:26:03 54° ESE 23:26:18 53° ESE
Cosmos 1602 Rocket 4.3 23:27:27 39° ENE 23:27:27 39° ENE 23:30:45 10° NNE
Cosmos 2218 Rocket 4.0 23:22:19 10° N 23:28:26 62° E 23:29:46 50° SE
deb Chang Zheng 4 4.0 23:28:01 10° NNE 23:31:31 49° ENE 23:31:31 49° ENE
Cosmos 2056 Rocket 3.8 23:28:20 10° NNW 23:33:24 58° WSW 23:34:24 49° SSW
ARGOS 4.2 23:36:13 28° SW 23:38:17 38° W 23:43:19 10° NNW
CZ-4B R/B 4.0 23:34:01 10° NNE 23:38:21 44° E 23:38:21 44° E
ISS -0.8 23:39:17 10° WNW 23:41:36 18° NNW 23:43:56 10° NNE
COSMOS 2487 3.9 23:48:51 37° NW 23:48:51 37° NW 23:51:49 10° N
Meteor 1-22 Rocket 4.0 23:44:35 10° N 23:49:52 67° E 23:50:03 67° E
Cosmos 1809 Rocket 4.3 23:44:18 10° N 23:50:26 86° E 23:51:25 65° SSE
Meteor 2-14 Rocket 4.4 23:45:23 10° N 23:51:25 63° E 23:52:03 59° ESE
CARTOSAT-1 3.8 23:53:33 67° NW 23:53:33 67° NW 23:57:26 10° NNW
Cosmos 1420 Rocket 4.3 23:48:32 10° N 23:53:41 54° ENE 23:53:44 54° ENE
Cosmos 2058 Rocket 4.1 23:50:56 10° NNW 23:55:03 39° W 23:55:16 38° W
